TimeMDT,TemperatureF,Dew PointF,Humidity,Sea Level PressureIn,VisibilityMPH,Wind Direction,Wind SpeedMPH,Gust SpeedMPH,PrecipitationIn,Events,Conditions,WindDirDegrees,DateUTC
12:53 AM,36.0,35.1,97,29.69,6.0,East,19.6,-,N/A,,Overcast,100,2012-10-23 06:53:00
1:33 AM,35.6,33.8,93,29.63,2.5,East,19.6,-,N/A,,Overcast,100,2012-10-23 07:33:00
1:44 AM,35.6,33.8,93,29.62,3.0,East,18.4,26.5,N/A,,Overcast,100,2012-10-23 07:44:00
1:53 AM,36.0,35.1,97,29.68,3.0,East,15.0,24.2,N/A,,Overcast,100,2012-10-23 07:53:00
2:53 AM,36.0,35.1,97,29.68,3.0,East,16.1,-,N/A,,Overcast,100,2012-10-23 08:53:00
3:12 AM,35.6,35.6,100,29.62,3.0,East,15.0,-,N/A,,Overcast,100,2012-10-23 09:12:00
3:53 AM,36.0,35.1,97,29.67,4.0,East,9.2,-,N/A,,Overcast,90,2012-10-23 09:53:00
4:53 AM,36.0,35.1,97,29.69,4.0,ESE,10.4,-,N/A,,Overcast,120,2012-10-23 10:53:00
5:46 AM,35.6,35.6,100,29.66,2.5,ESE,8.1,-,N/A,,Overcast,120,2012-10-23 11:46:00
5:53 AM,36.0,35.1,97,29.71,2.0,ESE,5.8,-,N/A,,Overcast,120,2012-10-23 11:53:00
6:09 AM,35.6,35.6,100,29.66,1.8,SE,4.6,-,N/A,,Overcast,130,2012-10-23 12:09:00
6:35 AM,35.6,35.6,100,29.66,1.8,Calm,Calm,-,N/A,,Overcast,0,2012-10-23 12:35:00
6:53 AM,36.0,35.1,97,29.72,1.5,East,4.6,-,N/A,,Overcast,90,2012-10-23 12:53:00
7:00 AM,35.6,35.6,100,29.66,1.2,SE,3.5,-,N/A,,Overcast,130,2012-10-23 13:00:00
7:53 AM,36.0,35.1,97,29.73,1.2,Calm,Calm,-,N/A,,Overcast,0,2012-10-23 13:53:00
8:06 AM,35.6,35.6,100,29.67,0.5,West,3.5,-,N/A,Fog,Fog,270,2012-10-23 14:06:00
8:49 AM,37.4,35.6,93,29.69,0.8,West,6.9,-,N/A,,Mist,260,2012-10-23 14:49:00
8:53 AM,37.4,35.6,93,29.69,0.8,WSW,6.9,-,N/A,,Mist,250,2012-10-23 14:53:00
9:02 AM,37.4,35.6,93,29.70,1.5,West,11.5,-,N/A,,Overcast,260,2012-10-23 15:02:00
9:05 AM,37.4,35.6,93,29.71,3.0,WSW,10.4,-,N/A,,Overcast,250,2012-10-23 15:05:00
9:12 AM,37.4,35.6,93,29.71,5.0,West,15.0,-,N/A,,Overcast,260,2012-10-23 15:12:00
9:53 AM,36.0,33.1,89,29.80,10.0,West,12.7,-,N/A,,Scattered Clouds,280,2012-10-23 15:53:00
10:46 AM,37.4,32.0,81,29.74,10.0,WNW,16.1,-,N/A,,Mostly Cloudy,300,2012-10-23 16:46:00
10:53 AM,37.0,32.0,82,29.80,10.0,WNW,15.0,-,N/A,,Mostly Cloudy,290,2012-10-23 16:53:00
11:06 AM,35.6,28.4,75,29.74,10.0,West,18.4,27.6,N/A,,Partly Cloudy,280,2012-10-23 17:06:00
11:53 AM,36.0,28.0,73,29.81,10.0,WNW,17.3,27.6,N/A,,Clear,290,2012-10-23 17:53:00
12:53 PM,37.0,27.0,67,29.82,10.0,WNW,24.2,28.8,N/A,,Partly Cloudy,290,2012-10-23 18:53:00
1:53 PM,37.0,24.1,59,29.84,10.0,West,18.4,28.8,N/A,,Clear,280,2012-10-23 19:53:00
2:53 PM,39.9,25.0,55,29.84,10.0,WNW,25.3,32.2,N/A,,Clear,290,2012-10-23 20:53:00
3:53 PM,37.0,24.1,59,29.86,10.0,WNW,24.2,32.2,N/A,,Clear,300,2012-10-23 21:53:00
4:53 PM,35.1,23.0,61,29.89,10.0,WNW,20.7,27.6,N/A,,Clear,300,2012-10-23 22:53:00
5:53 PM,32.0,23.0,69,29.94,10.0,WNW,15.0,25.3,N/A,,Clear,300,2012-10-23 23:53:00
6:53 PM,28.9,21.0,72,29.95,10.0,WNW,21.9,29.9,N/A,,Clear,290,2012-10-24 00:53:00
7:53 PM,28.0,21.0,75,29.97,10.0,WNW,16.1,-,N/A,,Clear,300,2012-10-24 01:53:00
8:53 PM,27.0,21.0,78,29.99,10.0,WNW,13.8,-,N/A,,Mostly Cloudy,290,2012-10-24 02:53:00
9:53 PM,28.0,21.0,75,30.00,10.0,WNW,10.4,-,N/A,,Overcast,300,2012-10-24 03:53:00
10:53 PM,28.0,19.9,72,30.01,10.0,WNW,18.4,29.9,N/A,,Overcast,300,2012-10-24 04:53:00
11:53 PM,28.4,21.2,74,29.94,10.0,WNW,12.7,-,N/A,,Overcast,290,2012-10-24 05:53:00